Location: Newark
(33.6439°N, 114.9881°W)
Time: 16:15:35
(UTC+00:00)

Vanguard 1 Rocket - Visible Passes

Search period start: 22 August 2019 00:00
Search period end: 01 September 2019 00:00
Orbit: 652 x 4224 km, 34.3° (Epoch: 21 August)

Date Brightness Start Highest point End Pass type
(mag) Time Alt. Az. Time Alt. Az. Time Alt. Az.
22 Aug 9.1 09:47:15 21° E 09:47:15 21° E 09:49:13 10° E visible
22 Aug 7.5 12:04:32 14° W 12:08:57 86° N 12:17:40 10° E visible
23 Aug 6.8 10:57:24 73° WNW 10:57:52 85° N 11:04:28 10° E visible
24 Aug 9.0 09:50:17 21° E 09:50:17 21° E 09:52:13 10° E visible
24 Aug 7.5 12:07:34 14° W 12:12:01 88° SSW 12:20:31 10° E visible
25 Aug 6.8 11:00:27 71° WNW 11:00:59 83° N 11:07:26 10° E visible
26 Aug 9.1 09:53:23 21° E 09:53:23 21° E 09:55:14 10° E visible
26 Aug 7.4 12:10:41 13° W 12:15:05 78° SSW 12:23:17 10° ESE visible
27 Aug 6.8 11:03:37 74° WNW 11:04:04 87° N 11:10:23 10° E visible
28 Aug 9.1 09:56:35 20° E 09:56:35 20° E 09:58:15 10° E visible
28 Aug 7.4 12:13:53 14° W 12:18:07 64° SSW 12:25:58 10° ESE visible
29 Aug 6.7 11:06:53 78° WSW 11:07:10 84° S 11:13:18 10° ESE visible
30 Aug 9.2 09:59:54 18° E 09:59:54 18° E 10:01:17 10° E visible
30 Aug 7.6 12:17:13 15° W 12:21:09 49° SSW 12:28:28 10° SE visible
31 Aug 10.0 03:49:23 10° S 03:53:00 14° SSE 03:53:00 14° SSE visible
31 Aug 6.8 11:10:16 70° S 11:10:16 70° S 11:16:11 10° ESE visible
